Location: Bílinka
(49.3579°N, 14.3767°E)
Time: 05:42:24
(UTC+00:00)

PSLV R/B - Pass Details

Date: 26 April 2024
Orbit: 467 x 522 km, 97.7° (Epoch: 19 May)

Event Time Altitude Azimuth Distance (km) Brightness Sun altitude
Rises 19:25:28 0° 186° (S) 2,626 7.0 -11.1°
Reaches altitude 10° 19:27:40 10° 195° (SSW) 1,752 6.2 -11.4°
Maximum altitude 19:31:10 35° 263° (W) 859 5.2 -11.8°
Drops below altitude 10° 19:34:44 10° 330° (NNW) 1,784 7.6 -12.3°
Sets 19:37:00 0° 340° (NNW) 2,681 8.5 -12.6°
